OpenBCM V1.13 (Linux)

Packet Radio Mailbox

DB0FHN

[JN59NK Nuernberg]

 Login: GUEST





  
DK5EC  > AMSAT    16.05.04 17:41l 69 Lines 2319 Bytes #999 (0) @ WW
BID : HXT8K8DB0MKA
Read: DC3RJ GUEST DK8NW
Subj: CUBE-Sats CUTE-1 and XI-IV
Path: DB0FHN<DB0FOR<DB0SIF<DB0AIS<DB0ROF<DB0ACH<DB0MKA
Sent: 040516/1408z @:DB0MKA.#NRW.DEU.EU [DP_Box_Hennef] DP6.00 $:HXT8K8DB0MKA
From: DK5EC @ DB0MKA.#NRW.DEU.EU (Karl)
To:   AMSAT @ WW 
X-Info: Upload without password authentication

Hello Sat-Friends,
inspired by a description of the CUBE-Sats CUTE-1 and XI-IV
by Frank Sperber, DL6DBN, in the recent AMSAT-DL Journal 
and hearing about a similar project of the University of Aachen
(COMPASS-1), I tried to record trhe signals of
these two birds. I was able to receive them with good signals,
inspite their little power of 100 mW. I had to switch
polarization to get optimum results.

Below you find the recordings of the telemetry data,
recent kepler data and frequencies of these cube sats.

73, Karl
DK5EC@DB0MKA

Hallo Sat-Freunde,
Nach dem Lesen von Frank Sperbers Artikel über die CUBE-Sats
CUTE-1 und XI-IV, und nachdem ich von einem ähnlichen Projekt
der FH Aachen (COMPASS-1) gehört habe, habe ich mal nach den
beiden Vögeln Ausschau gehalten und habe die Telemetiedaten
aufgezeichnet. Die Baken senden in CW. die Vögel können auch 
AX.25 FM, aber aus Gründen des Power Budgets ist FM nur
ueber Japan angeschaltet.
Weiter unten sind die in CW augfgenommen Telemetrie-Daten,
Kepler Daten und Frequenzen. Die Signal kommen gut an,
manchmnal etwas schwach und mit Polarisationswechseln.

73, Karl
DK5EC@DB0MKA



Telemetry data  in CW of CUTE-1:
CUTE 72 AS HA 80 E6 3C18 4702 FF FF 77 8F 
CUTE 6C A5 6C 7F DA 3C18 4702 FF FF 79 8F 
CUTE 6F A4 6D 80 DD 3C18 4702 FF FF 7D 8F 
CUTE 72 A4 69 80 D8 3C18 4702 FF FF 7F 8E 
CUTE 6F A4 68 7F D6 3C18 4702 FF FF 7D 8E 
CUTE 66 A4 6A 80 DD 3C18 4702 FF FF 82 8E 
CUTE 69 A4 6B 7F D7 3C18 4702 FF FF 82 8E 
CUTE 57 A4 6B 7F E2 3C18 4702 FF FF 80 8D 
CUTE 5C A4 6C 80 E4 3C18 4702 FF FF 7B 8D 
CUTE 63 A4 6B 80 E3 3C18 4702 FF FF 7M DD 
CUTE 58 A5 6A 80 E4 3C18 4702 FF FF 77 8D 
CUTE 64 A4 6B 80 E2 3C18 4702 FF FF 76 8D 


Telemetry Data in CW of XI-IX:
61001 AT65566555547 ITT1WWW.SPACE.T.U-TOKYO.AC.JP
T28BE5B3 T397B8003E T42E4262 WWWW.SPACE.T.U-TOKYO.AC.JP 

Kepler Data:

XI-IV
1 27848U 03031J   04133.51951316  .00000100  00000-0  67426-4 0  2036
2 27848  98.7193 140.9090 0011043 113.0538 247.1779 14.20063225 44966

CUTE-1
1 27844U 03031E   04133.56011024  .00000116  00000-0  74982-4 0  2324
2 27844  98.7247 141.1534 0010713 107.1369 253.0982 14.20207161 44979

Downlink Frequency for CW Beacon:
CUTE-1, 436.837 MHz
XI-IV,  436.847 MHz
ÿ



Read previous mail | Read next mail


 09.06.2026 21:27:03lGo back Go up